STARLINK-5888, 56348

Orbit data source: Space-Track

STARLINK-5888, 56348 is a payload satellite owned by SpaceX/Seattle (US) in SSO that was launched on Thu, 27 Apr 2023 UTC via an FALCON 9 launch vehicle from the Air Force Western Test Range (AFWTR). Payload-class satellites include a variety of spacecraft equipped with specific instruments for various scientific and technological missions. These include communications satellites like Starlink; space stations such as the ISS; scientific satellites like the Hubble; Earth observation satellites from companies like Planet Labs, Umbra, and HawkEye 360; GPS; miniature CubeSats for education and research; and military/defense satellites.

Loading next visibility...
Identifier
56348, 2023-058AH
Orbit
SSO
Country
Flag of USUS
Related business
Manufacturer
SpaceX/Seattle
Mission
Operational Commercial Communications
Bus & Motor
STARLINK, Unknown motor
Mass
300 kg wet, ~260 kg dry
Launch date (UTC)
2023-04-27 (3 years ago)
Launch vehicle
FALCON 9
Launch site
Air Force Western Test Range (AFWTR)
Object type
Payload
Rocket body
Debris
Shape & HBR
Box + 1 Pan, 10.1 m
Radar Cross Section
11.087 m², Large (>1 m²)

Expand to show TLE details & history
Last TLE update: 2 days ago

TLE from 2 days ago
0 STARLINK-5888
1 56348U 23058AH  26170.93365074  .00000308  00000-0  25270-4 0  9998
2 56348  97.3438 169.7413 0001477  91.7927 268.3470 15.05652912173509
Epoch: 2026-06-19T22:24Z
TLE epoch observation values (Epoch: 2026-06-19T22:24:27.423Z)
Latitude
-0.00002°
Longitude
-74.52847°
Altitude
552.604 km
Speed
7.585 km/s
True Right ascension
11h 18m 57s
True Declination
0° 00' 00"
Sunlit
Object was in daylight at epoch
Visualization orbit readout
Latitude
Unknown
Longitude
Unknown
Altitude
Unknown
Speed
Unknown
Apparent Right ascension
Unknown
Apparent Declination
Unknown
Sunlit
N/A
Visualization observer readout
Local Sidereal Time
21:24:56
Azimuth
Unknown
Elevation
Unknown
Doppler factor
Unknown
Orbital elements
Apogee altitude
547.507 km
Perigee altitude
545.462 km
Semi-major axis
6,924.622 km
Eccentricity
0.00015
Inclination
97.3438°
RAAN
169.7413°
Arg. of periapsis
91.7927°
True anomaly
268.33008°
Mean anomaly
268.347°
Eccentric anomaly
268.33854°
Mean motion
3.7666 °/min
Orbital period
95.58 mins
BSTAR
0.00002527
Loading maneuver chart data...
Computing Atmospheric mass density...
Loading historical data...
Loading historical data...
Loading historical data...
Loading historical data...
Loading historical data...
Loading historical data...
Loading historical data...

Documentation

Showing up to 5 results
|